1655 visiteurs
Prévisions de votre ville :
Vigilance : 39 départements 1 département Mise à jour le 19/10/2019 à 16:08 - Voir la carte

Paris Roissy CDG (95380) le 19/10/2019 à 17:00 Choisir station

14.6°C 69 % SSO Rafales 31 km/h
Vit. moyenne 11 kmh/h

Relevés météo quotidiens pour la station de :

UTC
S: Synop
M: Metar
Loc T°C
(°C)
Td
(°C)
HR
(%)
Vis
(km)
Néb
(octa)
Vent
(km/h)
Pression
(mb)
Précipitations
(mm)
Temps
              MOY
10 min
DIR RAF 1h MESURE VAR SUR 3h    
S 00 h 02h 21.2 14.6 66 20 - 4 19 1014.3 -0.2/3h 0.0/6h - 0.0/3h -
S 01 h 03h 21.4 14.3 64 20 - 2 6 1014.0 -0.1/3h 0.0/1h -
S 02 h 04h 20.7 13.6 64 20 - 4 13 1013.4 -0.8/3h 0.0/1h -
S 03 h 05h 19.3 13.7 70 20 - 2 9 1013.0 -1.4/3h 0.0/3h -
S 04 h 06h 18.4 13.9 75 20 - 2 9 1013.0 -1.3/3h 0.0/1h -
S 05 h 07h 18.1 14.8 81 20 - 6 7 1013.0 -0.6/3h 0.0/1h -
S 06 h 08h 20.8 15.6 72 20 - 9 31 1014.0 +1.1/3h 0.0/12h - 0.0/3h - 0.0/24h -
S 07 h 09h 24.9 13.4 49 19 - 4 19 1013.3 +0.9/3h 0.0/1h -
S 08 h 10h 26.9 14.6 47 7 - 4 9 1012.7 +0.5/3h 0.0/1h -
S 09 h 11h 28.5 14.7 43 20 - 9 22 1012.3 -0.9/3h 0.0/3h -
S 10 h 12h 20.6 16.4 77 18 - 15 24 1015.8 +2.1/3h 0.8/1h
S 11 h 13h 22.1 16.8 72 20 - 7 22 1015.3 +2.1/3h 0.0/1h -
S 12 h 14h 23.8 17.8 69 20 - 7 26 1013.2 +0.5/3h 0.8/6h - 0.8/3h -
S 13 h 15h 29.6 15.7 43 6 - 7 24 1011.9 -3.0/3h 0.0/1h -
S 14 h 16h 30.5 16.1 42 19 - 4 11 1011.2 -3.2/3h 0.0/1h -
S 15 h 17h 31.2 15.2 38 20 - 7 22 1010.5 -2.0/3h 0.0/3h -
S 16 h 18h 30.7 16.7 43 20 - 9 19 1010.3 -1.4/3h 0.0/1h -
S 17 h 19h 30.7 16.7 43 20 - 6 19 1009.8 -1.3/3h 0.0/1h -
S 18 h 20h 26.4 16.6 55 20 - 7 13 1010.6 -0.3/3h 0.8/12h - 0.0/3h -
S 19 h 21h 25.7 17.9 62 20 - 2 6 1010.7 -0.1/3h 0.0/1h -
S 20 h 22h 24.7 15.9 58 20 - 9 17 1011.7 +1.3/3h 0.0/1h -
S 21 h 23h 23.5 17.5 69 20 - 9 26 1012.1 +1.2/3h 0.0/1h -
S 22 h 00h 20.9 16.5 76 20 - 6 13 1011.9 +0.7/3h 0.0/1h -
S 23 h 01h 19.3 16.3 83 20 - 4 6 1012.5 +0.2/3h 0.0/1h -
evolution des temperatures
cumul des precipitations
vent moyen et rafales
pression atmospherique

Un tiret (-) signifie que les données ne sont pas disponibles.

Passez la souris sur les pictos temps pour avoir plus de précisions. Passez les flèches sur l'icône de la direction du vent pour voir la direction précise en degrés.

Les données de l'heure en cours sont disponibles à partir de H+15 minutes.


S signifie station Synop, plus complète qu'une station Metar (M). Il y a +1h de différence entre l'heure UTC et l'heure légale en hiver et +2h en été.

Td est la mesure du point de rosée.

HR est l'humidité relative/p>

Vis est la visibilité

Néb est la nébulosité du ciel (couverture nuageuse) exprimée en octas (de 0/8 à 8/8).

Vent moy 10 min donne le vent moyen sur les 10 minutes qui précèdent le relevé.

Vent raf 1h donne la rafale maximale mesurée dans l'heure qui précède le relevé.


Les données les plus anciennes remontent à avril 2014.

Les données présentées sur cette page proviennent des stations météo officielles. Les relevés sont effectués aux normes en vigueur (anémomètre à 10m de haut, thermomètre sous abri normalisé à 2m du sol...)

Météo 60 décline toute responsabilité en cas d'absence de données, d'erreurs, de mauvaise utilisation ou interprétation et n'est pas habilité à fournir des certificats intempéries.